User: anonymous   Login
Location: Endfield
(51.6667°N, 0.0667°W)
Time: 06:57:47
(UTC+00:00)
Language:

Cosmos 1048 Rocket - Orbit

View from above orbital plane
View from above orbital plane
View from above satellite
View from above satellite

Ground track
Ground track

The orbit data is extracted from the following two-line orbital elements,

1 11112U 78105B   24202.12841505  .00000574  00000-0  19688-3 0  9994
2 11112  74.0303  79.5860 0033764 324.2924  35.5971 14.38058176391870
Epoch (UTC): 20 July 2024 03:04:55
Eccentricity: 0.0033764
inclination: 74.0303°
perigee height: 741 km
apogee height: 789 km
right ascension of ascending node: 79.5860°
argument of perigee: 324.2924°
revolutions per day: 14.38058176
mean anomaly at epoch: 35.5971°
orbit number at epoch: 39187

The dashed part of the orbit path shows where the satellite is in the earth's shadow,  

DLR